Погода в Каменке

Украина / Харьковская область     49°59′07″N   37°49′54″E
темп.,
°C
ветер,
м/с
пор.,
м/с
влажн.,
%
обл.,
%
осадки,
мм/ч
давл.,
гПа
погр.,
м
17 мая, вт
вт1700:00+7з512898 0.0 1013243
03:00+5зсз412895 0.0 1013249
06:00+6зсз411860 0.0 1013290
09:00+11зсз710570 0.0 10131280
12:00+14зсз71044100 0.1 10122612
15:00+14зсз7104799 0.1 10112253
18:00+14зсз585153 0.0 10101741
21:00+10зюз377394 0.1 1010154
18 мая, ср
ср1800:00+7з37943 0.2 1010143
03:00+5з379380 0.2 1009129
06:00+6сз378511 0.0 1009184
09:00+11ссз34598 0.0 1010836
12:00+14ссз334584 0.1 10102166
15:00+13с435598 0.4 10101317
18:00+11с467668 1.4 1011523
21:00+7с48885 2.0 1013126
19 мая, чт
чт1900:00+7с4119685 0.1 1015268
03:00+7с511937 0.3 1016282
06:00+6с410910 0.0 1018271
09:00+12с68695 0.0 1019779
12:00+15с785118 0.0 10181845
15:00+16ссз7949100 0.0 10182216
18:00+14сз3961100 0.0 1018643
21:00+11зсз51276100 0.1 1019323
20 мая, пт
пт2000:00+8зсз4108286 0.0 1020201
03:00+7сз369266 0.0 1021110
06:00+8сз258737 0.0 1022146
09:00+13сз3467100 0.0 1022661
12:00+17сз585274 0.1 10211908
15:00+16зсз3661100 0.1 1020812
18:00+17з2465100 0.3 1019659
21:00+12сз2388100 0.6 101965
21 мая, сб
сб2100:00+12ююз4787100 0.0 1016150
03:00+10юз41383100 0.0 1013257
06:00+12юз51378100 0.0 1011372
09:00+13юз61282100 0.4 1010439
12:00+18зюз81271100 0.1 10081115
15:00+17зюз81380100 0.6 1007923
18:00+15зюз61396100 3.6 1006629
21:00+15зюз71495100 9.4 1004673